RH
50 45 44 49 56 52 54 60 67 69 70 71 68 57 56 51 51 53 56 55 61 55 51 52 54 51 49 51 60 67 68 59 56 66 73 77 63 68 71 87 87 62 56
31 25 20 15 18 23 27 31 38 43 52 66 73 71 66 67 68 55 53 54 52 51 49 51 50 57 56 49 51 60 65 70 59 48 54 63 67 70 63 69 76 67 62
33 30 26 23 22 21 22 18 22 27 33 44 55 57 59 60 67 70 70 68 64 55 51 51 53 55 54 52 55 54 57 61 73 71 62 44 41 53 58 69 71 74 68
40 37 34 27 23 22 22 20 18 18 17 18 26 33 41 49 54 57 63 64 63 65 68 71 71 67 68 64 59 57 62 63 63 75 83 83 61 47 54 61 59 67 66
45 44 39 32 26 22 20 20 20 20 20 18 18 17 17 21 27 37 47 54 52 53 56 60 63 60 60 63 66 61 62 66 62 60 68 82 76 62 56 60 65 69 66
49 48 42 38 33 27 22 21 20 19 19 19 19 20 20 21 25 24 23 23 30 39 43 45 48 51 52 57 59 61 63 61 62 62 57 63 69 75 78 69 57 52 66
53 49 44 42 36 30 24 22 22 22 21 19 18 18 19 20 22 24 24 23 22 20 19 19 20 23 28 36 43 52 59 63 65 65 62 58 62 65 69 80 78 63 56
51 44 43 42 37 30 25 23 22 22 24 25 25 26 25 23 21 22 23 22 21 20 20 20 21 21 22 20 25 32 41 48 53 61 64 57 59 62 60 64 74 75 64
53 47 44 42 37 29 25 23 22 23 23 24 27 30 31 31 32 32 30 27 25 24 24 24 23 23 21 22 28 25 27 29 33 41 46 54 61 64 64 64 66 67 62
54 49 41 36 30 25 23 24 25 26 26 26 26 28 28 27 28 30 32 31 33 30 29 29 29 30 29 30 31 30 27 21 27 30 33 39 44 48 57 62 65 68 64
51 43 36 34 29 26 27 27 26 27 28 30 30 29 30 31 31 35 35 35 36 37 36 36 36 36 37 36 37 40 37 33 31 30 26 26 32 37 41 53 62 64 66
44 42 37 30 29 27 28 29 30 30 31 32 36 35 36 34 35 37 40 39 40 40 41 42 39 35 34 36 37 37 41 41 40 38 34 29 26 29 33 40 49 60 63
36 33 32 32 30 30 30 31 32 36 37 39 40 40 42 42 41 43 42 42 42 43 43 40 37 37 36 38 36 38 41 43 44 45 43 39 36 32 33 37 42 55 58
32 31 31 31 30 32 33 35 36 37 39 40 41 41 41 42 43 42 42 43 41 41 39 36 38 40 41 42 43 47 48 45 46 46 45 45 43 39 35 38 42 42 46
34 33 33 34 34 33 35 37 38 41 43 44 44 44 45 44 44 43 40 40 41 41 39 39 40 42 44 46 48 49 49 52 60 64 62 55 50 47 41 41 42 45 54
35 35 35 34 33 33 33 34 36 38 39 41 42 41 43 43 41 41 43 43 42 41 41 43 44 47 50 54 56 58 60 57 57 62 66 67 64 58 51 48 50 50 48
36 35 34 37 33 31 34 35 35 36 39 38 36 33 34 34 34 33 35 36 39 41 44 48 54 55 55 59 62 65 67 71 70 67 68 68 68 69 70 69 67 60 49
35 38 33 38 39 39 36 37 37 37 38 34 32 31 32 32 34 35 35 33 36 41 48 52 59 62 66 69 73 79 80 76 78 76 71 71 74 76 81 90 84 75 65
40 41 36 37 41 39 39 39 42 40 34 31 26 28 28 29 32 33 31 31 33 43 51 54 58 63 68 69 72 83 84 87 86 85 82 76 78 81 82 79 83 90 85
43 40 36 37 39 40 36 34 38 39 36 32 30 24 21 21 28 30 32 32 33 40 44 50 57 63 67 72 75 84 91 92 94 96 92 89 82 86 85 83 83 80 75
46 46 44 44 41 36 36 34 38 37 32 30 29 26 23 19 21 19 23 27 32 37 44 49 52 58 64 73 78 86 86 93 93 98 91 97 93 92 92 89 84 82 82
46 45 44 42 38 35 36 36 38 36 31 29 28 27 25 21 20 18 17 21 28 33 39 45 50 55 61 71 81 89 88 93 95 97 94 94 97 99 99 95 92 87 85
48 47 47 48 44 39 41 36 38 37 30 28 28 28 26 25 27 21 18 16 21 27 31 32 30 31 37 51 68 83 89 95 91 93 88 87 91 96 95 94 95 87 81
53 52 51 51 49 47 46 44 41 38 34 28 26 27 27 28 28 24 21 20 20 22 22 21 23 23 24 25 35 62 87 90 92 95 95 93 90 89 94 92 88 88 84
59 56 57 54 52 49 44 42 39 36 35 32 30 28 28 28 29 26 27 29 26 30 29 25 23 22 20 18 21 25 32 56 76 89 96 94 91 92 97 90 90 86 83
63 59 59 54 57 54 52 45 45 38 36 35 37 34 32 31 32 30 33 29 28 28 30 28 26 25 22 19 18 18 19 24 30 55 87 93 93 94 94 92 91 92 91